GFSMW_925_temp_159.txt.gz
Temp
9 7 6 6 5 5 5 4 4 4 3 4 4 5 5 5 5 5 4 4 4 4 4 5 6 6 6 5 5 6 8 10 12 14 15 15 15 15 15 15 16 16 16
9 8 7 6 5 4 4 4 3 3 3 3 3 3 3 4 4 4 4 4 3 4 4 4 5 5 6 6 5 5 6 8 10 13 15 16 16 15 15 15 15 16 15
10 8 7 5 5 4 3 3 3 2 2 2 3 3 4 5 5 4 4 4 3 3 3 4 4 4 5 5 5 5 6 6 8 10 13 16 18 19 16 15 15 15 15
9 8 7 6 5 4 3 3 3 2 2 2 3 2 3 3 3 3 3 3 3 3 3 3 3 3 4 5 5 6 6 6 7 9 12 14 17 18 19 16 15 15 15
9 8 6 5 4 3 3 2 2 2 2 2 2 2 2 2 2 3 3 3 3 2 3 3 3 3 3 4 4 5 5 6 6 7 9 12 14 16 16 20 16 15 15
8 6 5 4 4 3 3 2 2 2 2 1 1 1 1 2 2 3 2 2 2 2 2 2 2 2 2 3 3 4 5 5 6 7 7 9 12 16 16 17 19 16 15
7 7 6 5 4 3 3 2 2 2 1 1 1 1 1 2 2 2 2 1 1 1 1 1 2 1 2 2 3 3 4 4 6 7 7 8 10 12 14 17 18 18 17
7 6 5 4 3 3 2 2 1 2 1 1 1 1 1 1 2 1 1 1 0 0 0 1 1 1 1 2 2 2 3 4 5 6 7 8 9 11 12 14 17 17 17
7 6 5 4 3 2 2 1 1 1 1 0 0 0 1 1 1 1 0 -0 0 -0 0 0 1 1 1 1 1 2 3 4 5 6 7 8 9 10 11 12 14 16 17
6 6 5 3 3 2 1 1 0 0 -0 -0 -0 -0 -0 -0 0 -0 -0 -1 -1 -1 -1 -0 0 0 1 1 1 1 2 3 3 4 7 8 9 10 11 13 13 13 15
7 5 4 2 2 2 1 0 0 -0 -0 -1 -1 -1 -1 -1 -1 -1 -1 -1 -2 -1 -1 -1 -0 -0 0 0 0 0 0 2 2 2 3 9 9 10 11 13 13 13 13
6 5 3 2 1 1 1 0 -0 -1 -1 -2 -2 -2 -2 -2 -1 -2 -1 -2 -2 -2 -1 -1 -1 -1 -0 -0 -1 -1 -0 -0 0 1 2 3 9 10 11 13 13 13 13
6 4 1 0 -0 -0 -1 -1 -1 -2 -2 -2 -2 -2 -2 -2 -2 -2 -2 -2 -2 -2 -2 -2 -2 -1 -1 -1 -1 -1 -1 -1 -1 -0 1 2 6 11 12 13 13 13 13
5 4 1 -1 -1 -2 -1 -2 -2 -2 -3 -3 -3 -2 -3 -2 -2 -2 -2 -3 -3 -3 -3 -3 -2 -2 -2 -2 -1 -2 -2 -2 -1 -1 0 1 4 10 12 13 13 14 13
5 4 1 -1 -2 -2 -2 -2 -3 -3 -3 -3 -2 -3 -3 -3 -3 -3 -3 -3 -4 -4 -4 -3 -3 -2 -2 -2 -3 -3 -2 -2 -1 -1 1 2 3 8 11 12 13 13 14
5 3 1 -0 -2 -2 -2 -3 -3 -4 -4 -3 -3 -3 -3 -3 -4 -3 -3 -4 -4 -4 -4 -4 -3 -3 -3 -3 -3 -3 -3 -2 -2 -1 1 3 3 6 9 11 12 13 13
4 2 0 -1 -2 -3 -3 -3 -4 -4 -3 -4 -4 -3 -3 -4 -4 -4 -4 -5 -4 -4 -4 -4 -4 -4 -3 -3 -4 -4 -3 -2 -2 -2 -1 1 4 5 8 10 11 12 13
2 -0 -1 -1 -3 -4 -4 -4 -4 -4 -4 -4 -4 -4 -4 -4 -4 -4 -4 -5 -4 -5 -4 -4 -4 -4 -4 -4 -4 -4 -3 -2 -2 -2 -2 -1 -0 2 5 10 11 11 12
-1 -1 -2 -3 -4 -4 -5 -4 -5 -4 -4 -4 -4 -4 -5 -5 -4 -4 -5 -5 -5 -5 -5 -4 -4 -5 -5 -5 -5 -4 -4 -3 -3 -3 -2 -2 -2 -2 -1 3 11 11 11
-1 -2 -3 -4 -4 -5 -5 -5 -5 -4 -5 -4 -4 -5 -5 -5 -4 -4 -5 -6 -6 -5 -5 -5 -5 -5 -6 -6 -5 -5 -5 -4 -3 -3 -3 -3 -3 -3 -2 1 8 10 10
-3 -4 -4 -5 -5 -6 -5 -5 -5 -5 -5 -5 -4 -5 -5 -5 -5 -5 -5 -6 -6 -6 -6 -6 -6 -6 -6 -6 -6 -5 -5 -5 -4 -4 -3 -4 -3 -3 -2 0 5 10 11
-4 -5 -5 -5 -6 -6 -6 -5 -5 -5 -6 -5 -5 -5 -5 -5 -5 -5 -6 -6 -6 -6 -6 -6 -6 -6 -7 -6 -6 -6 -6 -6 -6 -5 -4 -4 -4 -4 -2 -0 5 8 10
-5 -5 -5 -5 -6 -6 -6 -6 -6 -6 -6 -5 -5 -5 -5 -5 -6 -6 -6 -6 -7 -7 -7 -7 -7 -7 -7 -7 -7 -7 -7 -7 -7 -6 -5 -5 -5 -4 -4 -3 1 6 8
-5 -6 -6 -6 -6 -7 -7 -7 -7 -6 -5 -5 -5 -6 -6 -6 -6 -6 -7 -7 -8 -8 -8 -8 -8 -8 -8 -8 -8 -8 -8 -8 -8 -7 -7 -7 -6 -5 -5 -4 -4 -2 2
-6 -6 -6 -6 -7 -7 -7 -7 -7 -6 -6 -6 -6 -7 -7 -7 -7 -7 -8 -8 -9 -9 -9 -9 -9 -9 -9 -9 -9 -9 -9 -9 -9 -8 -8 -8 -7 -6 -6 -5 -5 -5 -3
-7 -7 -7 -7 -8 -8 -8 -8 -8 -7 -7 -7 -7 -8 -8 -8 -8 -8 -8 -9 -9 -9 -10 -10 -10 -10 -10 -10 -10 -10 -10 -10 -10 -9 -9 -9 -8 -8 -7 -6 -6 -6 -5

GFSMW_925_temp_165.txt.gz
Temp
22 19 17 15 15 13 14 13 13 12 13 14 14 14 14 13 13 12 11 11 10 10 10 10 10 10 10 9 10 9 9 10 11 12 15 17 18 18 18 19 19 18 19
22 18 16 15 15 14 13 13 13 12 12 13 12 12 12 13 13 12 11 11 10 9 9 9 9 8 8 8 9 8 8 9 9 10 11 16 19 21 21 20 20 19 18
22 18 16 15 15 14 13 13 12 12 11 10 13 12 13 14 14 12 12 11 10 9 8 8 7 7 6 7 7 7 7 8 8 9 9 13 18 16 18 18 21 20 18
22 19 17 16 15 13 12 12 11 11 10 10 11 10 12 13 12 12 11 10 10 9 8 8 7 6 6 5 5 6 5 6 7 8 9 9 10 11 13 16 16 16 16
21 20 18 16 14 12 12 11 11 11 10 9 9 10 10 11 11 11 10 10 10 9 8 7 7 6 5 5 5 5 5 5 6 6 7 8 8 9 12 14 17 18 17
21 19 17 15 13 11 11 11 11 11 9 9 9 9 9 9 9 10 10 10 9 9 8 7 6 5 5 4 4 4 4 4 5 5 6 6 7 9 10 13 14 17 18
19 17 15 14 14 12 11 10 10 11 9 9 8 8 8 8 9 9 9 8 8 8 7 6 5 4 3 3 3 3 4 4 4 5 5 5 6 7 8 9 11 14 15
18 16 15 15 12 11 10 10 10 10 9 8 8 8 7 8 8 7 7 7 7 6 6 5 4 3 3 3 3 3 3 3 3 4 4 4 5 6 6 7 9 11 14
17 16 15 14 12 11 9 9 9 9 8 8 7 7 7 6 6 5 5 6 5 5 5 4 3 3 2 2 2 2 3 3 3 3 3 4 4 5 5 5 7 9 10
16 16 14 12 12 11 9 8 8 8 7 7 6 6 6 5 5 4 4 3 4 4 4 3 3 2 1 1 2 2 2 2 2 3 3 3 3 4 4 5 6 6 9
16 15 13 12 11 10 9 8 7 7 6 6 5 5 5 4 4 4 3 2 2 3 3 2 2 1 1 1 1 1 1 1 1 1 1 2 2 3 3 4 5 7 6
15 14 12 10 10 9 8 8 7 6 5 5 5 4 4 3 3 2 1 1 1 2 2 1 1 0 0 -0 0 0 0 0 0 0 0 1 1 2 2 3 4 5 6
15 14 9 8 8 7 7 7 6 5 5 4 4 4 3 2 2 1 1 1 1 1 1 1 0 -0 -0 -0 -0 -1 -1 -1 -1 -1 -0 0 1 1 2 2 2 2 4
15 13 3 1 4 4 5 5 5 4 4 4 4 3 3 2 2 0 0 1 1 0 0 0 -0 -1 -1 -1 -1 -2 -3 -3 -2 -2 -1 -0 1 1 2 2 1 1 2
15 12 4 0 0 1 3 4 3 3 3 3 3 3 2 1 1 -0 0 1 0 0 -0 -1 -1 -1 -1 -1 -3 -4 -4 -4 -3 -2 -1 0 1 0 1 1 0 -0 1
14 11 6 3 2 2 3 3 3 2 3 2 2 2 1 -0 -1 -1 0 0 -1 -1 -1 -2 -2 -2 -2 -3 -4 -4 -5 -4 -3 -2 -1 -1 -0 1 0 -0 -1 -1 -1
14 10 7 5 4 3 3 3 3 2 2 2 2 1 -1 -1 -1 -0 -0 -0 -1 -1 -1 -2 -2 -2 -3 -3 -4 -5 -5 -3 -3 -2 -2 -2 -1 -1 -1 -1 -2 -2 -2
12 9 6 3 3 3 3 2 2 2 2 2 1 0 -1 -1 -1 -1 -1 -1 -1 -1 -2 -2 -2 -3 -3 -4 -5 -5 -5 -4 -3 -3 -3 -3 -2 -3 -4 -4 -4 -3 -2
10 6 4 4 4 4 3 3 3 2 2 1 0 -0 -2 -1 -1 -2 -2 -1 -1 -1 -2 -3 -3 -3 -4 -5 -6 -6 -6 -5 -5 -4 -4 -4 -4 -4 -5 -5 -4 -3 -2
5 4 4 4 3 3 3 3 3 2 1 1 0 -1 -1 -1 -2 -2 -2 -2 -2 -2 -3 -4 -4 -4 -5 -6 -6 -6 -6 -6 -6 -5 -5 -5 -6 -6 -6 -5 -5 -3 -3
5 4 5 4 3 2 3 3 2 1 1 1 0 -0 -1 -1 -2 -3 -2 -2 -3 -3 -4 -5 -5 -5 -6 -6 -7 -7 -7 -7 -7 -7 -7 -7 -7 -7 -6 -6 -5 -5 -5
4 4 4 3 2 2 3 2 2 1 1 1 0 -0 -1 -1 -2 -3 -3 -3 -4 -5 -5 -6 -6 -6 -6 -7 -7 -7 -7 -7 -8 -8 -8 -8 -8 -7 -7 -7 -6 -6 -6
5 4 3 2 1 1 1 0 -0 1 1 0 -0 -1 -2 -2 -2 -3 -4 -5 -6 -6 -7 -7 -7 -7 -7 -8 -8 -8 -8 -8 -9 -9 -9 -9 -9 -8 -8 -8 -7 -7 -6
4 3 2 1 0 -0 -1 -0 -1 -0 -0 -0 -1 -1 -2 -2 -3 -4 -5 -6 -7 -8 -8 -9 -9 -9 -8 -9 -9 -9 -9 -9 -9 -10 -9 -10 -10 -9 -9 -9 -8 -7 -7
3 2 1 0 -0 -0 -1 -1 -1 -1 -1 -1 -2 -2 -3 -3 -3 -4 -6 -6 -8 -9 -9 -10 -10 -10 -9 -10 -9 -10 -9 -9 -10 -10 -10 -10 -10 -10 -10 -9 -9 -8 -8
1 1 0 0 -1 -1 -2 -2 -3 -3 -2 -2 -3 -5 -4 -4 -4 -5 -5 -6 -7 -8 -9 -10 -10 -10 -10 -10 -9 -10 -9 -9 -10 -10 -10 -11 -11 -11 -11 -10 -10 -9 -8

GFSMW_925_temp_168.txt.gz
Temp
24 21 19 17 17 14 14 14 14 13 14 15 14 14 14 14 14 13 12 11 10 10 9 9 9 9 8 8 8 8 8 8 8 9 9 11 14 16 16 17 18 18 18
24 20 18 16 16 15 14 14 14 13 13 13 13 13 13 13 13 13 12 11 10 10 9 9 8 8 7 6 7 6 7 7 7 8 9 10 12 13 12 15 16 17 18
23 19 17 16 15 14 14 14 13 13 11 11 13 13 14 14 13 12 12 10 10 10 9 8 8 7 7 6 5 6 6 6 6 7 8 10 10 9 12 13 14 14 14
23 18 17 16 15 14 13 13 12 12 11 11 12 11 12 12 12 12 11 10 10 10 9 8 7 7 6 5 5 5 4 5 5 6 7 7 7 8 9 11 10 12 14
21 18 17 16 15 13 12 12 12 11 10 10 10 10 10 10 11 11 10 10 9 9 9 8 7 6 5 5 4 4 4 4 4 5 5 6 6 7 8 9 10 9 11
19 18 17 16 13 12 12 11 12 11 10 10 9 9 9 9 9 10 10 9 9 8 8 6 6 5 4 3 3 3 3 3 4 4 4 5 6 6 7 7 8 9 9
19 18 17 15 13 12 12 11 12 10 9 9 9 9 8 9 9 8 7 7 7 7 6 6 5 4 3 3 2 3 3 3 3 3 3 4 4 5 5 6 7 7 8
19 17 16 15 14 12 11 11 11 11 9 9 8 8 8 8 8 6 6 6 6 6 5 5 4 3 3 2 2 2 2 3 3 3 3 3 3 4 4 5 5 6 7
18 17 15 15 13 12 11 10 10 10 9 8 8 7 7 6 6 5 5 4 4 4 4 3 3 2 2 1 1 1 2 2 2 2 3 2 2 3 3 4 4 5 6
17 16 15 14 13 11 10 9 9 9 8 7 7 6 6 5 5 5 4 3 3 3 3 3 2 2 1 1 0 1 1 1 1 1 1 1 1 2 2 2 3 4 5
16 15 14 13 12 11 9 8 8 7 7 6 6 6 5 4 4 4 3 2 2 2 2 2 2 1 1 -0 -0 -0 0 -1 -1 -0 -0 -0 0 1 1 2 2 3 3
16 15 13 12 11 10 9 8 7 6 6 5 5 4 4 3 3 2 1 1 1 1 1 1 1 0 -0 -0 -1 -1 -2 -2 -2 -2 -2 -1 -1 -0 1 1 1 2 2
15 14 11 10 9 9 8 7 7 6 5 5 5 4 3 3 2 1 1 1 1 1 1 0 -0 -1 -1 -1 -2 -2 -3 -3 -3 -3 -2 -2 -1 -1 0 1 1 2 2
15 7 3 2 7 7 7 6 5 5 5 5 4 3 3 2 1 1 1 1 1 0 -0 -1 -1 -1 -1 -2 -3 -3 -4 -4 -4 -3 -2 -2 -1 -1 -1 -0 0 1 1
13 6 2 1 2 3 5 5 4 4 4 4 4 3 2 1 0 0 1 1 0 -0 -1 -1 -2 -2 -2 -3 -4 -5 -5 -5 -4 -3 -2 -2 -2 -1 -1 -1 -1 -1 -0
14 7 4 2 2 2 4 4 3 3 3 3 3 2 1 0 -0 0 0 0 0 -0 -1 -1 -2 -3 -3 -4 -4 -5 -6 -5 -4 -3 -3 -3 -3 -2 -3 -3 -3 -4 -4
12 7 5 4 4 4 4 4 4 3 3 3 2 1 -0 -0 -0 -0 -1 -1 -0 -1 -2 -2 -3 -3 -4 -5 -5 -6 -6 -5 -5 -4 -5 -4 -4 -4 -4 -5 -5 -5 -4
10 8 6 5 4 4 4 3 3 3 3 2 2 0 -1 -0 -1 -1 -1 -1 -1 -1 -2 -3 -4 -4 -4 -5 -6 -6 -7 -6 -6 -6 -6 -5 -5 -6 -6 -6 -6 -5 -5
9 7 5 5 5 4 4 4 4 3 3 2 1 0 -0 -0 -1 -2 -1 -1 -2 -2 -3 -4 -5 -5 -5 -6 -6 -7 -7 -7 -7 -7 -7 -6 -7 -7 -7 -7 -6 -6 -5
6 6 5 5 5 4 4 4 4 3 2 1 1 0 -0 -0 -1 -2 -2 -2 -3 -3 -4 -5 -6 -6 -6 -7 -7 -8 -8 -8 -8 -8 -8 -8 -8 -8 -7 -7 -7 -7 -7
5 5 5 5 4 4 4 4 3 2 2 1 1 0 -1 -1 -1 -2 -3 -4 -4 -5 -6 -6 -7 -7 -7 -8 -8 -8 -8 -8 -8 -9 -9 -9 -8 -8 -8 -8 -8 -7 -7
6 6 5 4 4 4 4 3 2 2 2 1 1 -0 -1 -1 -2 -3 -4 -5 -6 -7 -7 -8 -8 -8 -8 -8 -8 -8 -8 -8 -9 -9 -10 -9 -8 -9 -9 -9 -9 -8 -9
6 5 4 3 3 3 2 1 2 2 1 1 0 -1 -2 -2 -3 -4 -5 -6 -7 -8 -8 -9 -9 -9 -9 -9 -9 -9 -9 -9 -9 -10 -9 -9 -10 -10 -10 -10 -10 -10 -9
5 4 3 2 1 1 1 0 1 1 1 -0 -1 -1 -3 -2 -3 -5 -5 -6 -8 -8 -9 -9 -10 -10 -9 -9 -9 -9 -10 -9 -10 -10 -10 -10 -10 -11 -11 -11 -11 -11 -10
4 4 2 1 1 0 -0 -0 -0 0 -1 -2 -2 -2 -3 -3 -4 -5 -6 -7 -8 -8 -9 -10 -10 -10 -10 -9 -8 -9 -9 -9 -10 -10 -11 -11 -11 -11 -12 -11 -11 -11 -11
3 2 1 1 0 -0 -1 -2 -2 -2 -2 -2 -4 -4 -4 -4 -5 -5 -5 -6 -6 -7 -8 -9 -9 -10 -9 -8 -9 -9 -9 -9 -10 -11 -11 -11 -12 -12 -12 -12 -12 -12 -12

GFSMW_925_temp_171.txt.gz
Temp
17 18 17 16 15 15 14 14 13 13 14 14 14 14 13 13 13 12 11 11 10 9 9 8 8 7 7 6 6 6 6 6 6 7 7 9 12 11 11 12 12 13 13
18 16 15 15 15 14 14 14 13 13 13 13 13 13 13 13 12 12 11 11 10 9 9 8 7 7 6 6 5 5 5 5 6 6 7 8 10 11 10 10 11 11 12
17 15 15 13 14 14 14 13 13 12 12 12 12 13 13 12 12 11 11 10 10 9 9 8 7 6 6 5 5 4 4 4 5 5 6 8 9 7 9 9 10 9 10
17 15 14 12 14 13 13 13 12 11 11 11 11 11 11 11 10 10 10 9 9 9 8 7 6 6 5 4 4 3 3 4 4 4 5 5 5 6 7 9 8 9 8
16 14 13 13 12 13 12 12 12 11 10 10 10 10 9 10 10 10 9 9 8 8 7 6 5 5 4 3 3 3 3 3 3 3 4 4 5 6 6 6 7 7 7
15 14 13 11 12 12 12 12 11 10 10 9 9 8 9 9 8 8 7 7 7 6 6 5 4 4 3 3 2 2 3 3 3 3 3 3 4 4 5 5 6 6 7
14 13 11 11 10 11 11 11 10 9 9 9 8 8 8 8 7 6 6 5 5 5 4 4 3 3 2 2 1 2 2 2 2 2 2 2 3 3 3 4 5 5 5
14 12 10 10 10 11 11 11 10 9 9 8 8 7 7 6 6 5 5 4 4 4 3 3 3 2 2 1 1 1 1 1 2 1 1 2 2 2 2 3 3 4 4
13 12 11 10 10 10 10 10 10 9 8 8 7 6 6 5 5 4 4 3 3 2 2 2 2 1 1 0 0 -0 0 0 0 0 1 0 0 1 1 1 1 2 3
13 12 10 10 10 10 10 9 8 8 7 7 6 5 5 4 4 3 2 2 2 2 2 1 1 1 0 -0 -0 -1 -1 -1 -1 -1 -2 -1 -1 -1 -0 0 1 1 2
13 11 11 10 9 9 9 8 8 7 6 6 5 4 4 3 3 2 2 1 1 1 1 1 1 0 -0 -1 -1 -2 -2 -3 -3 -3 -3 -2 -2 -2 -1 -0 0 1 1
12 11 10 9 8 8 8 7 6 6 5 5 4 4 3 3 2 1 1 1 1 1 0 0 -1 -1 -1 -1 -2 -3 -4 -4 -4 -4 -4 -3 -2 -2 -1 -1 -0 0 1
11 10 7 7 7 7 7 6 6 5 5 5 4 3 3 2 1 1 1 1 1 0 -0 -1 -1 -1 -1 -2 -4 -4 -5 -5 -5 -5 -4 -3 -2 -2 -2 -2 -1 -1 -0
12 6 3 3 6 7 6 5 5 5 5 4 3 2 2 1 0 0 1 1 0 -0 -1 -1 -2 -2 -2 -4 -4 -5 -5 -6 -5 -5 -4 -3 -3 -3 -3 -3 -3 -2 -3
7 5 3 2 4 5 5 5 4 4 4 3 2 1 1 0 -0 0 -0 -0 -0 -1 -1 -2 -3 -3 -3 -4 -5 -6 -6 -6 -6 -5 -5 -5 -4 -4 -4 -4 -4 -5 -5
7 4 3 3 3 4 4 4 4 3 3 2 1 0 0 -0 -0 -1 -1 -1 -1 -1 -2 -3 -4 -4 -4 -5 -5 -6 -7 -7 -6 -6 -6 -6 -5 -6 -5 -6 -6 -6 -6
6 4 3 3 3 3 4 3 3 3 2 2 1 -0 -0 -1 -1 -1 -1 -1 -2 -3 -4 -4 -5 -5 -5 -5 -6 -7 -8 -8 -7 -7 -7 -7 -6 -7 -7 -7 -6 -6 -6
6 5 4 3 4 4 4 3 3 3 2 1 -0 -0 -0 -1 -2 -2 -2 -2 -3 -4 -5 -5 -6 -6 -7 -6 -7 -7 -8 -8 -8 -8 -8 -8 -8 -8 -7 -7 -7 -7 -7
6 4 4 4 3 2 3 3 3 2 2 1 -0 -0 -1 -1 -2 -2 -3 -4 -4 -5 -6 -7 -7 -7 -8 -7 -7 -8 -9 -9 -9 -9 -9 -9 -9 -8 -8 -8 -8 -8 -8
5 3 3 3 3 4 4 3 2 2 1 1 -0 -0 -1 -2 -2 -3 -4 -5 -6 -7 -7 -8 -8 -8 -8 -8 -8 -8 -9 -9 -9 -9 -10 -10 -9 -8 -8 -9 -9 -9 -9
5 4 4 4 4 4 4 2 2 2 1 1 -0 -1 -1 -2 -3 -4 -5 -6 -7 -8 -8 -9 -9 -9 -9 -9 -8 -8 -9 -9 -9 -10 -11 -10 -9 -9 -9 -9 -10 -9 -10
4 4 4 4 4 4 3 2 2 1 1 0 -1 -1 -2 -3 -4 -5 -6 -7 -8 -8 -9 -9 -10 -9 -9 -9 -9 -9 -9 -9 -10 -11 -11 -11 -10 -10 -10 -11 -10 -10 -11
4 3 3 3 3 3 2 2 1 1 0 -0 -1 -2 -3 -4 -4 -5 -6 -7 -8 -9 -9 -10 -10 -10 -9 -9 -9 -9 -9 -9 -11 -11 -11 -11 -11 -12 -12 -12 -11 -12 -12
3 3 2 1 0 1 1 1 1 0 -0 -1 -2 -3 -3 -4 -5 -6 -6 -7 -8 -9 -10 -10 -10 -10 -10 -9 -9 -9 -10 -10 -11 -11 -12 -12 -12 -13 -13 -13 -13 -13 -13
2 1 1 0 -0 0 -0 -0 0 -1 -2 -3 -3 -4 -4 -5 -5 -6 -7 -7 -8 -9 -9 -9 -10 -10 -10 -9 -8 -9 -10 -10 -11 -12 -13 -13 -13 -13 -13 -13 -13 -13 -13
2 1 0 -0 -1 -1 -2 -2 -2 -2 -3 -4 -4 -5 -5 -5 -6 -6 -6 -6 -7 -7 -8 -9 -9 -10 -9 -9 -9 -9 -11 -11 -12 -13 -13 -13 -14 -14 -14 -14 -14 -14 -14